Location: Syracuse
(43.0480°N, 76.1480°W)
Time: 11:59:35
(UTC-05:00)

Daily predictions for brighter satellites

Satellite Brightness Start Highest point End
(mag) Time Altitude Azimuth Time Altitude Azimuth Time Altitude Azimuth
Meteor 1-21 Rocket 4.4 17:21:30 10° S 17:27:24 78° E 17:33:16 10° NNE
CORIOLIS 4.1 17:25:13 10° SSE 17:30:31 72° ENE 17:35:53 10° N
Cosmos 2333 Rocket 2.8 17:26:42 10° S 17:31:50 37° ESE 17:36:59 10° NE
Cosmos 1766 Rocket 3.9 17:28:41 10° SSW 17:33:08 72° W 17:37:35 10° N
OTV 4 2.2 17:31:37 10° WSW 17:34:13 27° S 17:36:49 10° SE
Cosmos 2219 Rocket 2.3 17:35:51 10° S 17:41:21 58° ESE 17:46:53 10° NNE
Resurs 01 Rocket 3.5 17:41:00 10° ENE 17:41:42 10° ENE 17:42:25 10° NE
Cosmos 371 Rocket 3.6 17:37:28 10° S 17:42:04 48° ESE 17:46:42 10° NNE
COSMO-SKYMED 1 3.2 17:38:58 10° NNE 17:42:59 36° E 17:46:58 10° SSE
Cosmos 2322 Rocket 4.5 17:40:16 10° W 17:43:59 18° NW 17:47:44 10° N
YAOGAN 1 2.7 17:40:19 10° SSE 17:44:39 83° W 17:49:00 10° NNW
Molniya-1 4.0 17:42:00 10° SW 17:44:41 87° NW 17:49:31 10° NE
CZ-4 R/B 4.4 17:42:17 10° SSE 17:46:25 80° ENE 17:50:35 10° N
Thor Agena Rocket 3.6 17:41:34 10° NNE 17:46:52 82° ESE 17:52:03 10° SSW
Cosmos 1125 Rocket 3.6 17:42:07 10° N 17:47:12 51° ENE 17:52:15 10° SE
Cosmos 2278 Rocket 2.4 17:42:05 10° NNW 17:47:37 48° ENE 17:53:04 10° SE
SPOT 3 Rocket 3.8 17:43:05 10° S 17:48:14 78° WSW 17:53:26 10° NNW
Cosmos 2058 3.9 17:44:52 10° SE 17:48:15 25° E 17:51:37 10° NE
BREEZE-M DEB (TANK) 4.4 17:46:46 10° WNW 17:50:54 41° SW 17:56:16 10° SSE
Cosmos 2279 Rocket 4.4 17:45:18 10° N 17:51:06 39° ENE 17:56:53 10° SE
USA 116 3.9 17:48:46 10° N 17:51:57 55° WNW 17:54:59 10° SSW
SMAP 3.7 17:47:34 10° S 17:52:10 61° W 17:56:48 10° NNW
Cosmos 2228 Rocket 3.3 17:48:03 10° N 17:52:28 77° W 17:56:53 10° S
Cosmos 1844 3.8 17:53:32 10° NNW 17:59:19 84° WSW 18:05:07 10° SSE
Cosmos 1626 4.0 17:57:54 10° ESE 17:59:17 13° E 17:59:17 13° E
Cosmos 841 Rocket 3.8 17:56:14 10° SSW 18:01:29 72° WNW 18:06:47 10° NNE
Cosmos 44 Rocket 3.4 17:56:45 10° SSW 18:01:53 78° ESE 18:06:56 10° NE
Cosmos 1340 Rocket 3.7 17:59:06 10° SSE 18:02:25 26° E 18:05:16 13° NE
Cosmos 1674 3.9 17:58:49 10° SSW 18:02:29 44° WNW 18:06:12 10° N
CENTAUR R/B 3.1 17:58:05 10° SW 18:04:07 58° NW 18:11:01 10° NNE
IDEFIX/ARIANE 42P 4.0 18:01:39 10° SSW 18:06:34 42° W 18:11:31 10° NNW
SL-14 R/B 3.3 18:04:52 10° S 18:08:42 57° E 18:12:37 10° NNE
Lacrosse 5 3.7 18:06:11 10° WNW 18:09:57 20° NNW 18:13:44 10° NNE
DNEPR-1 R/B 4.4 18:04:55 10° SSW 18:11:55 83° ESE 18:17:18 12° NE
COSMOS 2428 3.7 18:07:19 10° SW 18:12:49 47° WNW 18:18:20 10° NNE
SKYMED 3 4.5 18:08:46 10° NNE 18:13:08 77° ESE 18:17:28 10° S
Cosmos 1484 Rocket 3.1 18:09:25 10° S 18:13:19 72° WSW 18:17:19 10° NNW
Cosmos 2237 Rocket 2.2 18:07:55 10° S 18:13:27 64° ESE 18:19:02 10° NNE
Cosmos 1726 2.1 18:11:49 10° N 18:15:36 89° E 18:19:22 10° S
CZ-2C R/B 4.4 18:11:16 10° SSW 18:15:45 33° W 18:20:09 10° NNW
Cosmos 1743 Rocket 4.5 18:11:30 10° SSW 18:15:51 51° WNW 18:20:15 10° N
SL-16 R/B 3.0 18:14:08 10° SSE 18:18:59 30° ESE 18:21:40 21° ENE
Cosmos 2151 2.8 18:14:57 10° S 18:19:09 79° E 18:23:22 10° N
Cosmos 1300 2.7 18:15:30 10° N 18:19:21 85° W 18:23:11 10° S
Timation 1 Rocket 4.5 18:18:59 10° NNW 18:24:52 52° ENE 18:30:44 10° SE
Cosmos 304 Rocket 4.2 18:21:20 10° S 18:25:46 39° ESE 18:28:11 23° NE
Cosmos 2297 3.9 18:22:17 10° NNW 18:27:48 48° ENE 18:33:18 10° SE
SKYMED 2 3.9 18:26:50 10° N 18:31:09 68° WNW 18:35:27 10° SSW
Aureole 2 Rocket 2.6 18:27:53 10° S 18:31:29 60° ESE 18:33:25 27° NE
Cosmos 1151 Rocket 3.6 18:28:15 10° NNW 18:32:27 58° W 18:36:39 10° S
Cosmos 1805 Rocket 3.7 18:30:40 10° S 18:34:59 52° E 18:38:22 16° NNE
BREEZE M DEB (TANK) 1.0 18:34:29 10° WNW 18:37:00 84° NW 18:37:00 84° NW
Lacrosse 5 rocket 1.0 18:34:50 10° NW 18:38:39 77° NE 18:40:18 33° SE
Abrixas 2.9 18:37:05 10° SW 18:39:46 45° SSE 18:39:46 45° SSE
Meteor 1-28 Rocket 3.5 18:40:16 10° N 18:43:57 64° WNW 18:47:38 10° SSW
Meteor 1-11 4.3 18:40:56 10° SSW 18:46:36 79° W 18:52:24 10° N
CZ-4C R/B 4.5 18:53:07 10° NNW 18:56:24 14° NNE 18:57:30 13° NNE
Sich 1 3.0 18:52:29 10° S 18:56:50 58° E 18:57:08 56° ENE
Cosmos 1980 4.4 18:55:41 10° SW 19:01:11 51° WNW 19:06:12 13° NNE
Cosmos 1633 Rocket 3.3 18:57:01 10° S 19:00:37 49° SE 19:00:37 49° SE
FengYun 1-2 T 4.1 18:56:54 10° SSE 19:02:26 71° ENE 19:07:57 10° N
Lacrosse 4 Rocket 3.5 18:59:35 10° N 19:00:22 14° N 19:00:22 14° N
FENGYUN 3A 3.5 19:00:50 10° SSE 19:06:09 71° ENE 19:11:31 10° N
USA 215 3.5 19:01:54 10° SE 19:08:20 67° SW 19:14:52 10° NW
SJ-6B 3.6 19:04:31 10° S 19:08:30 55° W 19:12:34 10° NNW
ALOS 2.1 19:04:29 10° SSE 19:09:08 79° ENE 19:13:50 10° N
OTV 4 3.3 19:08:19 10° SW 19:09:46 13° SSW 19:09:46 13° SSW
Cosmos 44 4.3 19:06:08 10° SW 19:11:11 46° NW 19:13:37 26° N
Cosmos 2333 Rocket 3.6 19:11:00 10° WSW 19:16:06 34° NW 19:20:56 11° N
Resurs 01 Rocket 1.5 19:17:34 86° NNW 19:17:34 86° NNW 19:21:56 10° NNW
Cosmos 1461 3.3 19:15:01 10° SSW 19:18:18 54° SSW 19:18:18 54° SSW
ATLAS 5 CENTAUR R/B 4.2 19:16:15 10° N 19:18:03 14° N 19:18:03 14° N
Cosmos 1703 4.3 19:16:57 10° SSW 19:20:41 44° WNW 19:21:52 33° NNW
Cosmos 1707 Rocket 4.2 19:18:17 10° NNW 19:22:31 53° W 19:26:43 10° S
Cosmos 2219 Rocket 4.2 19:21:11 10° WSW 19:25:42 24° NW 19:30:13 10° N
Cosmos 2278 Rocket 4.3 19:26:46 10° NW 19:31:22 26° WSW 19:35:57 10° SSW
Cosmos 1666 Rocket 4.3 19:29:37 10° SSW 19:33:50 51° WNW 19:34:05 50° WNW
Cosmos 1626 3.8 19:31:20 10° SSW 19:34:02 33° WSW 19:34:02 33° WSW
Spot 2 Rocket 3.8 19:32:42 10° S 19:37:42 62° WSW 19:42:42 10° NNW
USA 229 DEB 3.8 19:43:42 10° SSW 19:49:29 62° S 19:49:29 62° S
USA 229 3.8 19:43:48 10° SSW 19:49:32 61° S 19:49:32 61° S
Lacrosse 5 4.2 19:51:18 10° NW 19:52:57 15° NNW 19:52:57 15° NNW
Cosmos 2237 Rocket 4.3 19:53:39 10° W 19:57:59 22° NW 20:01:05 15° N
Aureole 1 Rocket 4.4 19:57:23 10° SSW 20:01:10 50° SW 20:01:10 50° SW
Cosmos 2369 Rocket 4.3 19:57:20 10° NNW 19:58:25 15° N 19:58:25 15° N
SL-16 R/B 3.2 19:57:36 10° SW 20:02:56 41° WNW 20:03:37 39° NW
Lacrosse 5 rocket 4.4 20:15:31 10° W 20:16:06 12° WSW 20:16:06 12° WSW
